EZY8636 EDDH-EGKK

Flight info

Callsign EZY8636
Flight time 1h 22m
Altitude 38000
Route WSN5C/05 WSN N125 ONTAZ DCT GALSO Q63 ARREK Y4 TEBRA TEBRA2G
Aircraft A320/M-SDE3FGHIRWY/LB1

Departure

Time 2026-05-06 10:47
Airport Hamburg Helmut Schmidt Airport (EDDH)

Arrival

Time 2026-05-06 12:10
Airport London Gatwick Airport (EGKK)
Time Latitude Longitude Altitude Speed Heading
2026-05-06 10:10 53.63247 10.00361 51 ft 0 kts 85°
2026-05-06 10:10 53.63294 10.00354 51 ft 0 kts 86°
2026-05-06 10:34 53.63294 10.00353 51 ft 2 kts 86°
2026-05-06 10:34 53.63293 10.00311 51 ft 4 kts 86°
2026-05-06 10:35 53.63291 10.00265 51 ft 4 kts 86°
2026-05-06 10:35 53.63290 10.00220 51 ft 4 kts 86°
2026-05-06 10:35 53.63289 10.00182 51 ft 4 kts 104°
2026-05-06 10:35 53.63300 10.00157 48 ft 4 kts 182°
2026-05-06 10:36 53.63326 10.00162 48 ft 3 kts 179°
2026-05-06 10:36 53.63330 10.00162 49 ft 0 kts 175°
2026-05-06 10:38 53.63328 10.00162 51 ft 3 kts 175°
2026-05-06 10:39 53.63276 10.00174 51 ft 8 kts 175°
2026-05-06 10:39 53.63189 10.00185 51 ft 19 kts 175°
2026-05-06 10:39 53.63069 10.00182 49 ft 16 kts 200°
2026-05-06 10:39 53.62983 10.00092 50 ft 11 kts 213°
2026-05-06 10:40 53.62922 10.00036 50 ft 9 kts 184°
2026-05-06 10:40 53.62865 10.00024 50 ft 8 kts 206°
2026-05-06 10:40 53.62796 9.99950 50 ft 20 kts 212°
2026-05-06 10:40 53.62674 9.99850 49 ft 19 kts 213°
2026-05-06 10:41 53.62629 9.99675 50 ft 16 kts 259°
2026-05-06 10:41 53.62611 9.99507 50 ft 14 kts 259°
2026-05-06 10:41 53.62594 9.99359 51 ft 12 kts 259°
2026-05-06 10:41 53.62578 9.99220 49 ft 14 kts 257°
2026-05-06 10:42 53.62548 9.99008 48 ft 23 kts 259°
2026-05-06 10:42 53.62513 9.98705 51 ft 30 kts 258°
2026-05-06 10:42 53.62480 9.98352 51 ft 31 kts 260°
2026-05-06 10:42 53.62393 9.98016 50 ft 32 kts 230°
2026-05-06 10:43 53.62251 9.97728 50 ft 27 kts 230°
2026-05-06 10:43 53.62161 9.97547 50 ft 19 kts 230°
2026-05-06 10:43 53.62079 9.97381 50 ft 18 kts 230°
2026-05-06 10:44 53.61936 9.97093 50 ft 14 kts 231°
2026-05-06 10:44 53.61858 9.96938 50 ft 19 kts 229°
2026-05-06 10:44 53.61779 9.96776 50 ft 17 kts 230°
2026-05-06 10:44 53.61706 9.96630 50 ft 15 kts 230°
2026-05-06 10:45 53.61671 9.96482 50 ft 12 kts 278°
2026-05-06 10:45 53.61739 9.96419 50 ft 15 kts
2026-05-06 10:45 53.61848 9.96438 47 ft 11 kts 15°
2026-05-06 10:45 53.61881 9.96486 46 ft 0 kts 51°
2026-05-06 10:46 53.61888 9.96500 47 ft 13 kts 51°
2026-05-06 10:46 53.62123 9.96976 47 ft 88 kts 50°
2026-05-06 10:46 53.62648 9.98033 49 ft 144 kts 50°
2026-05-06 10:47 53.63336 9.99390 486 ft 152 kts 50°
2026-05-06 10:47 53.64020 10.00778 1133 ft 155 kts 51°
2026-05-06 10:47 53.64707 10.02191 1776 ft 157 kts 50°
2026-05-06 10:47 53.65449 10.03672 2096 ft 174 kts 50°
2026-05-06 10:48 53.66277 10.05322 2338 ft 197 kts 51°
2026-05-06 10:48 53.67152 10.07092 3187 ft 194 kts 53°
2026-05-06 10:48 53.68012 10.08858 4003 ft 197 kts 51°
2026-05-06 10:48 53.69141 10.10264 4722 ft 212 kts 24°
2026-05-06 10:49 53.70639 10.10453 4967 ft 228 kts 348°
2026-05-06 10:49 53.72095 10.08897 5003 ft 268 kts 312°
2026-05-06 10:49 53.73155 10.06194 5004 ft 279 kts 301°
2026-05-06 10:49 53.74045 10.03240 5220 ft 289 kts 297°
2026-05-06 10:50 53.74677 10.00033 6205 ft 289 kts 280°
2026-05-06 10:50 53.74722 9.96637 7088 ft 289 kts 263°
2026-05-06 10:50 53.74239 9.93331 7880 ft 293 kts 247°
2026-05-06 10:50 53.73449 9.90211 8735 ft 292 kts 246°
2026-05-06 10:51 53.72652 9.87062 9676 ft 291 kts 246°
2026-05-06 10:51 53.71852 9.83891 10270 ft 302 kts 246°
2026-05-06 10:51 53.70993 9.80504 10485 ft 324 kts 246°
2026-05-06 10:51 53.70081 9.76952 11002 ft 334 kts 246°
2026-05-06 10:52 53.69150 9.73356 11674 ft 338 kts 246°
2026-05-06 10:52 53.68203 9.69706 12394 ft 342 kts 246°
2026-05-06 10:52 53.67243 9.66013 13089 ft 345 kts 246°
2026-05-06 10:52 53.66269 9.62268 13775 ft 349 kts 246°
2026-05-06 10:53 53.65293 9.58511 14405 ft 351 kts 245°
2026-05-06 10:53 53.64318 9.54774 15048 ft 353 kts 245°
2026-05-06 10:53 53.63324 9.50979 15711 ft 355 kts 245°
2026-05-06 10:53 53.62322 9.47155 16371 ft 357 kts 244°
2026-05-06 10:54 53.61324 9.43348 16965 ft 360 kts 244°
2026-05-06 10:54 53.60306 9.39461 17539 ft 363 kts 244°
2026-05-06 10:54 53.59280 9.35545 18126 ft 367 kts 244°
2026-05-06 10:54 53.58245 9.31608 18612 ft 370 kts 243°
2026-05-06 10:55 53.57200 9.27643 19135 ft 372 kts 244°
2026-05-06 10:55 53.56142 9.23645 19678 ft 374 kts 244°
2026-05-06 10:55 53.55081 9.19637 20207 ft 376 kts 244°
2026-05-06 10:55 53.54013 9.15605 20713 ft 379 kts 244°
2026-05-06 10:56 53.52945 9.11576 21262 ft 381 kts 244°
2026-05-06 10:56 53.51871 9.07533 21800 ft 383 kts 244°
2026-05-06 10:56 53.50782 9.03440 22309 ft 386 kts 244°
2026-05-06 10:56 53.49674 8.99297 22796 ft 388 kts 244°
2026-05-06 10:57 53.48563 8.95152 23317 ft 391 kts 244°
2026-05-06 10:57 53.47440 8.90963 23756 ft 393 kts 244°
2026-05-06 10:57 53.46314 8.86767 24151 ft 396 kts 244°
2026-05-06 10:57 53.45696 8.84463 24356 ft 397 kts 244°
2026-05-06 10:58 53.44924 8.81586 24628 ft 398 kts 244°
2026-05-06 10:58 53.44611 8.80420 24730 ft 399 kts 244°
2026-05-06 10:58 53.43814 8.77476 24988 ft 400 kts 243°
2026-05-06 10:58 53.42678 8.73282 25357 ft 402 kts 244°
2026-05-06 10:59 53.41518 8.68992 25672 ft 406 kts 244°
2026-05-06 10:59 53.40344 8.64645 25991 ft 409 kts 244°
2026-05-06 10:59 53.39166 8.60292 26335 ft 412 kts 243°
2026-05-06 10:59 53.37973 8.55909 26679 ft 414 kts 243°
2026-05-06 11:00 53.36769 8.51502 27022 ft 415 kts 243°
2026-05-06 11:00 53.35565 8.47098 27364 ft 417 kts 243°
2026-05-06 11:00 53.34354 8.42667 27694 ft 419 kts 243°
2026-05-06 11:00 53.33137 8.38218 28018 ft 421 kts 243°
2026-05-06 11:01 53.31913 8.33756 28342 ft 423 kts 243°
2026-05-06 11:01 53.30681 8.29282 28654 ft 425 kts 243°
2026-05-06 11:01 53.29443 8.24791 28963 ft 426 kts 243°
2026-05-06 11:01 53.28198 8.20284 29263 ft 429 kts 243°
2026-05-06 11:02 53.26939 8.15736 29515 ft 431 kts 243°
2026-05-06 11:02 53.25675 8.11179 29775 ft 434 kts 243°
2026-05-06 11:02 53.24403 8.06594 30035 ft 436 kts 243°
2026-05-06 11:02 53.23143 8.02063 30266 ft 437 kts 243°
2026-05-06 11:03 53.21852 7.97449 30519 ft 438 kts 243°
2026-05-06 11:03 53.20560 7.92842 30739 ft 439 kts 242°
2026-05-06 11:03 53.19265 7.88223 30967 ft 440 kts 242°
2026-05-06 11:03 53.17966 7.83588 31186 ft 441 kts 242°
2026-05-06 11:04 53.16676 7.78995 31489 ft 440 kts 242°
2026-05-06 11:04 53.15377 7.74372 31823 ft 438 kts 242°
2026-05-06 11:04 53.14090 7.69804 32153 ft 437 kts 242°
2026-05-06 11:04 53.12797 7.65238 32490 ft 435 kts 242°
2026-05-06 11:05 53.11506 7.60698 32853 ft 433 kts 241°
2026-05-06 11:05 53.10223 7.56191 33193 ft 431 kts 241°
2026-05-06 11:05 53.08938 7.51679 33521 ft 430 kts 241°
2026-05-06 11:05 53.07662 7.47203 33842 ft 428 kts 241°
2026-05-06 11:06 53.06385 7.42729 34106 ft 427 kts 241°
2026-05-06 11:06 53.05110 7.38272 34334 ft 427 kts 241°
2026-05-06 11:06 53.03833 7.33815 34553 ft 427 kts 241°
2026-05-06 11:06 53.02556 7.29365 34761 ft 427 kts 241°
2026-05-06 11:07 53.01292 7.24963 34887 ft 429 kts 242°
2026-05-06 11:07 53.00004 7.20492 35033 ft 430 kts 242°
2026-05-06 11:07 52.98708 7.16008 35214 ft 430 kts 242°
2026-05-06 11:07 52.97409 7.11523 35411 ft 430 kts 242°
2026-05-06 11:08 52.96113 7.07062 35640 ft 429 kts 242°
2026-05-06 11:08 52.94821 7.02618 35880 ft 428 kts 242°
2026-05-06 11:08 52.93528 6.98178 36069 ft 427 kts 242°
2026-05-06 11:08 52.92234 6.93742 36260 ft 427 kts 242°
2026-05-06 11:09 52.90942 6.89318 36434 ft 427 kts 242°
2026-05-06 11:09 52.89646 6.84885 36617 ft 427 kts 242°
2026-05-06 11:09 52.88350 6.80471 36777 ft 427 kts 242°
2026-05-06 11:09 52.87067 6.76112 36933 ft 426 kts 242°
2026-05-06 11:10 52.85766 6.71700 37081 ft 426 kts 242°
2026-05-06 11:10 52.84450 6.67235 37235 ft 426 kts 242°
2026-05-06 11:10 52.83162 6.62870 37385 ft 426 kts 242°
2026-05-06 11:10 52.81858 6.58462 37520 ft 426 kts 242°
2026-05-06 11:11 52.80550 6.54055 37669 ft 426 kts 243°
2026-05-06 11:11 52.79241 6.49650 37838 ft 426 kts 243°
2026-05-06 11:11 52.77931 6.45243 37884 ft 426 kts 243°
2026-05-06 11:12 52.75328 6.36506 37889 ft 426 kts 243°
2026-05-06 11:12 52.72696 6.27722 37885 ft 426 kts 242°
2026-05-06 11:13 52.70060 6.18963 37886 ft 426 kts 242°
2026-05-06 11:13 52.67419 6.10213 37887 ft 426 kts 242°
2026-05-06 11:14 52.64775 6.01471 37904 ft 426 kts 242°
2026-05-06 11:14 52.62132 5.92793 37901 ft 426 kts 242°
2026-05-06 11:15 52.59463 5.84063 37890 ft 427 kts 242°
2026-05-06 11:15 52.56791 5.75349 37902 ft 427 kts 242°
2026-05-06 11:16 52.54125 5.66647 37901 ft 427 kts 242°
2026-05-06 11:16 52.51896 5.59396 37898 ft 427 kts 242°
2026-05-06 11:17 52.49207 5.50703 37900 ft 427 kts 242°
2026-05-06 11:17 52.46502 5.41999 37907 ft 428 kts 242°
2026-05-06 11:18 52.43801 5.33338 37907 ft 428 kts 242°
2026-05-06 11:18 52.41099 5.24685 37904 ft 428 kts 242°
2026-05-06 11:19 52.38378 5.16014 37902 ft 428 kts 242°
2026-05-06 11:19 52.35649 5.07363 37896 ft 428 kts 242°
2026-05-06 11:20 52.32491 4.97358 37902 ft 428 kts 242°
2026-05-06 11:20 52.30216 4.90176 37912 ft 428 kts 242°
2026-05-06 11:21 52.27471 4.81548 37911 ft 428 kts 242°
2026-05-06 11:21 52.24719 4.72933 37908 ft 428 kts 242°
2026-05-06 11:22 52.21962 4.64350 37895 ft 427 kts 242°
2026-05-06 11:22 52.19229 4.55858 37888 ft 427 kts 242°
2026-05-06 11:23 52.16486 4.47354 37897 ft 428 kts 241°
2026-05-06 11:23 52.13721 4.38816 37891 ft 428 kts 241°
2026-05-06 11:24 52.10947 4.30281 37901 ft 428 kts 241°
2026-05-06 11:24 52.08243 4.22003 37905 ft 428 kts 241°
2026-05-06 11:25 52.05461 4.13491 37910 ft 429 kts 241°
2026-05-06 11:25 52.02652 4.04949 37914 ft 428 kts 241°
2026-05-06 11:26 51.99836 3.96411 37915 ft 428 kts 241°
2026-05-06 11:26 51.97031 3.87930 37924 ft 428 kts 241°
2026-05-06 11:27 51.94210 3.79405 37922 ft 428 kts 241°
2026-05-06 11:27 51.91378 3.70893 37920 ft 429 kts 241°
2026-05-06 11:28 51.88546 3.62411 37933 ft 428 kts 241°
2026-05-06 11:28 51.85719 3.53978 37927 ft 428 kts 240°
2026-05-06 11:29 51.82866 3.45499 37931 ft 429 kts 240°
2026-05-06 11:29 51.81438 3.41260 37690 ft 429 kts 240°
2026-05-06 11:29 51.80011 3.37030 37426 ft 428 kts 240°
2026-05-06 11:29 51.78584 3.32816 37147 ft 428 kts 240°
2026-05-06 11:30 51.77172 3.28656 36896 ft 427 kts 240°
2026-05-06 11:30 51.75741 3.24445 36609 ft 426 kts 240°
2026-05-06 11:30 51.74346 3.20207 35874 ft 429 kts 245°
2026-05-06 11:30 51.73312 3.15693 35219 ft 429 kts 253°
2026-05-06 11:31 51.72742 3.10980 34733 ft 425 kts 261°
2026-05-06 11:31 51.72342 3.06260 34189 ft 423 kts 261°
2026-05-06 11:31 51.71941 3.01571 33600 ft 421 kts 261°
2026-05-06 11:31 51.71538 2.96910 33060 ft 417 kts 260°
2026-05-06 11:32 51.71137 2.92304 32526 ft 412 kts 260°
2026-05-06 11:32 51.70743 2.87804 32010 ft 409 kts 261°
2026-05-06 11:32 51.70342 2.83268 31478 ft 406 kts 261°
2026-05-06 11:32 51.69943 2.78791 30980 ft 403 kts 260°
2026-05-06 11:33 51.69542 2.74344 30466 ft 399 kts 260°
2026-05-06 11:33 51.69146 2.69929 29963 ft 396 kts 261°
2026-05-06 11:33 51.68753 2.65529 29433 ft 393 kts 261°
2026-05-06 11:33 51.68368 2.61198 28958 ft 388 kts 261°
2026-05-06 11:34 51.67986 2.56922 28495 ft 383 kts 260°
2026-05-06 11:34 51.67603 2.52693 28037 ft 379 kts 261°
2026-05-06 11:34 51.67226 2.48533 27598 ft 375 kts 261°
2026-05-06 11:34 51.66856 2.44463 27173 ft 371 kts 261°
2026-05-06 11:35 51.66487 2.40419 26754 ft 368 kts 261°
2026-05-06 11:35 51.66114 2.36319 26320 ft 364 kts 260°
2026-05-06 11:35 51.65753 2.32347 25906 ft 361 kts 260°
2026-05-06 11:35 51.65386 2.28365 25470 ft 358 kts 261°
2026-05-06 11:36 51.65018 2.24418 25033 ft 355 kts 260°
2026-05-06 11:36 51.64646 2.20489 24582 ft 353 kts 261°
2026-05-06 11:36 51.64277 2.16593 24132 ft 351 kts 260°
2026-05-06 11:36 51.63911 2.12710 23677 ft 350 kts 261°
2026-05-06 11:37 51.63547 2.08842 23164 ft 349 kts 260°
2026-05-06 11:37 51.63189 2.05004 22702 ft 346 kts 261°
2026-05-06 11:37 51.62840 2.01226 22249 ft 343 kts 261°
2026-05-06 11:37 51.62491 1.97447 21799 ft 341 kts 261°
2026-05-06 11:38 51.62141 1.93687 21352 ft 339 kts 261°
2026-05-06 11:38 51.61793 1.89945 20911 ft 337 kts 261°
2026-05-06 11:38 51.61355 1.86249 20463 ft 334 kts 253°
2026-05-06 11:38 51.60470 1.82801 20024 ft 333 kts 241°
2026-05-06 11:39 51.59142 1.79776 19592 ft 332 kts 230°
2026-05-06 11:39 51.57622 1.77029 19157 ft 331 kts 229°
2026-05-06 11:39 51.56094 1.74264 18735 ft 330 kts 229°
2026-05-06 11:39 51.54569 1.71499 18329 ft 329 kts 230°
2026-05-06 11:40 51.53050 1.68743 17889 ft 328 kts 230°
2026-05-06 11:40 51.51539 1.65998 17461 ft 326 kts 229°
2026-05-06 11:40 51.50047 1.63279 17050 ft 324 kts 232°
2026-05-06 11:40 51.48787 1.60303 16650 ft 320 kts 244°
2026-05-06 11:41 51.47933 1.57010 16255 ft 317 kts 251°
2026-05-06 11:41 51.47186 1.53732 15865 ft 316 kts 250°
2026-05-06 11:41 51.46430 1.50435 15482 ft 314 kts 250°
2026-05-06 11:41 51.45673 1.47152 15094 ft 313 kts 250°
2026-05-06 11:42 51.44918 1.43887 14706 ft 312 kts 250°
2026-05-06 11:42 51.44148 1.40639 14329 ft 312 kts 248°
2026-05-06 11:42 51.43042 1.37650 13940 ft 313 kts 233°
2026-05-06 11:42 51.41509 1.35201 13770 ft 312 kts 219°
2026-05-06 11:43 51.39760 1.33129 13616 ft 312 kts 218°
2026-05-06 11:43 51.38037 1.31092 13442 ft 311 kts 217°
2026-05-06 11:43 51.36295 1.29029 13278 ft 310 kts 219°
2026-05-06 11:44 51.32829 1.24915 12948 ft 309 kts 217°
2026-05-06 11:44 51.31126 1.22900 12782 ft 308 kts 218°
2026-05-06 11:44 51.29405 1.20868 12617 ft 307 kts 218°
2026-05-06 11:44 51.27684 1.18838 12457 ft 306 kts 219°
2026-05-06 11:45 51.25963 1.16816 12291 ft 306 kts 218°
2026-05-06 11:45 51.24244 1.14800 12132 ft 306 kts 218°
2026-05-06 11:45 51.22525 1.12783 11973 ft 306 kts 219°
2026-05-06 11:45 51.20815 1.10774 11812 ft 306 kts 218°
2026-05-06 11:46 51.19101 1.08761 11644 ft 305 kts 218°
2026-05-06 11:46 51.17388 1.06754 11480 ft 305 kts 219°
2026-05-06 11:46 51.15698 1.04779 11328 ft 305 kts 218°
2026-05-06 11:46 51.13966 1.02755 11168 ft 304 kts 218°
2026-05-06 11:47 51.12260 1.00764 11005 ft 304 kts 219°
2026-05-06 11:47 51.10580 0.98807 10850 ft 304 kts 218°
2026-05-06 11:47 51.08872 0.96820 10686 ft 304 kts 218°
2026-05-06 11:47 51.07178 0.94829 10525 ft 302 kts 221°
2026-05-06 11:48 51.05718 0.92442 10362 ft 301 kts 235°
2026-05-06 11:48 51.04659 0.89589 10198 ft 299 kts 248°
2026-05-06 11:48 51.03783 0.86609 10037 ft 295 kts 248°
2026-05-06 11:48 51.02914 0.83694 9883 ft 290 kts 246°
2026-05-06 11:49 51.02048 0.80805 9743 ft 289 kts 248°
2026-05-06 11:49 51.01181 0.77918 9592 ft 289 kts 247°
2026-05-06 11:49 51.00318 0.75040 9445 ft 288 kts 248°
2026-05-06 11:49 50.99459 0.72171 9292 ft 288 kts 246°
2026-05-06 11:50 50.98600 0.69303 9134 ft 287 kts 246°
2026-05-06 11:50 50.97743 0.66452 8992 ft 286 kts 246°
2026-05-06 11:50 50.96884 0.63604 8829 ft 286 kts 245°
2026-05-06 11:50 50.96037 0.60795 8691 ft 286 kts 248°
2026-05-06 11:51 50.95178 0.57952 8538 ft 285 kts 248°
2026-05-06 11:51 50.94320 0.55113 8382 ft 285 kts 248°
2026-05-06 11:51 50.93465 0.52284 8237 ft 284 kts 246°
2026-05-06 11:51 50.92612 0.49461 8076 ft 283 kts 247°
2026-05-06 11:52 50.91882 0.46578 7912 ft 280 kts 259°
2026-05-06 11:52 50.91643 0.43570 7762 ft 271 kts 274°
2026-05-06 11:52 50.91898 0.40643 7631 ft 266 kts 289°
2026-05-06 11:52 50.92419 0.37859 7495 ft 266 kts 289°
2026-05-06 11:53 50.92927 0.35105 7359 ft 258 kts 289°
2026-05-06 11:53 50.93415 0.32401 7229 ft 246 kts 287°
2026-05-06 11:53 50.93647 0.29690 7109 ft 261 kts 277°
2026-05-06 11:53 50.93762 0.26789 6987 ft 265 kts 276°
2026-05-06 11:54 50.93869 0.23859 6840 ft 265 kts 276°
2026-05-06 11:54 50.93970 0.21005 6693 ft 265 kts 276°
2026-05-06 11:54 50.94066 0.18152 6545 ft 265 kts 276°
2026-05-06 11:54 50.94163 0.15249 6394 ft 264 kts 276°
2026-05-06 11:55 50.94259 0.12340 6233 ft 263 kts 276°
2026-05-06 11:55 50.94353 0.09472 6071 ft 263 kts 276°
2026-05-06 11:55 50.94444 0.06583 5907 ft 262 kts 276°
2026-05-06 11:55 50.94533 0.03694 5658 ft 261 kts 276°
2026-05-06 11:56 50.94615 0.00830 5220 ft 260 kts 276°
2026-05-06 11:56 50.94701 -0.02034 4772 ft 259 kts 277°
2026-05-06 11:56 50.94770 -0.04885 4386 ft 257 kts 277°
2026-05-06 11:56 50.94983 -0.07669 4020 ft 251 kts 287°
2026-05-06 11:57 50.95462 -0.10312 3978 ft 252 kts 291°
2026-05-06 11:57 50.95995 -0.12952 3980 ft 254 kts 291°
2026-05-06 11:57 50.96531 -0.15582 3981 ft 254 kts 291°
2026-05-06 11:57 50.97084 -0.18283 3982 ft 254 kts 291°
2026-05-06 11:58 50.97622 -0.20912 3982 ft 254 kts 291°
2026-05-06 11:58 50.98170 -0.23582 3983 ft 254 kts 291°
2026-05-06 11:58 50.98716 -0.26254 3980 ft 254 kts 291°
2026-05-06 11:58 50.99263 -0.28924 3980 ft 255 kts 291°
2026-05-06 11:59 50.99811 -0.31611 3980 ft 255 kts 291°
2026-05-06 11:59 51.00358 -0.34294 3983 ft 254 kts 291°
2026-05-06 11:59 51.00903 -0.36965 3998 ft 254 kts 291°
2026-05-06 11:59 51.01436 -0.39591 3670 ft 251 kts 291°
2026-05-06 12:00 51.01955 -0.42150 3538 ft 237 kts 291°
2026-05-06 12:00 51.02443 -0.44590 3383 ft 227 kts 291°
2026-05-06 12:00 51.02902 -0.46936 3256 ft 217 kts 292°
2026-05-06 12:00 51.03604 -0.48933 3127 ft 200 kts 322°
2026-05-06 12:01 51.04783 -0.49804 3039 ft 184 kts 351°
2026-05-06 12:01 51.06009 -0.50149 3001 ft 175 kts 352°
2026-05-06 12:01 51.07200 -0.50438 2974 ft 176 kts 353°
2026-05-06 12:01 51.08412 -0.50683 2805 ft 175 kts 354°
2026-05-06 12:02 51.09607 -0.50872 2839 ft 172 kts 354°
2026-05-06 12:02 51.10798 -0.51111 2945 ft 174 kts 356°
2026-05-06 12:02 51.12012 -0.51057 3001 ft 176 kts
2026-05-06 12:02 51.13170 -0.51575 3001 ft 178 kts 322°
2026-05-06 12:03 51.13824 -0.53231 3000 ft 184 kts 283°
2026-05-06 12:03 51.13632 -0.55258 3000 ft 192 kts 242°
2026-05-06 12:03 51.12641 -0.56696 3001 ft 198 kts 202°
2026-05-06 12:03 51.11283 -0.56862 3006 ft 201 kts 162°
2026-05-06 12:04 51.10153 -0.55708 3002 ft 196 kts 122°
2026-05-06 12:04 51.09733 -0.53781 2996 ft 185 kts 80°
2026-05-06 12:04 51.10166 -0.51907 3048 ft 182 kts 60°
2026-05-06 12:04 51.10522 -0.49967 3013 ft 185 kts 73°
2026-05-06 12:05 51.10786 -0.47962 2996 ft 184 kts 74°
2026-05-06 12:05 51.11054 -0.46003 2984 ft 173 kts 72°
2026-05-06 12:05 51.11307 -0.44180 2996 ft 166 kts 74°
2026-05-06 12:05 51.11557 -0.42403 2940 ft 164 kts 73°
2026-05-06 12:06 51.11720 -0.41238 2837 ft 162 kts 73°
2026-05-06 12:06 51.11966 -0.39485 2646 ft 162 kts 72°
2026-05-06 12:06 51.12211 -0.37741 2458 ft 161 kts 73°
2026-05-06 12:06 51.12533 -0.35441 2148 ft 159 kts 71°
2026-05-06 12:07 51.12772 -0.33726 1930 ft 159 kts 72°
2026-05-06 12:07 51.12928 -0.32605 1779 ft 151 kts 73°
2026-05-06 12:07 51.13147 -0.31027 1578 ft 141 kts 70°
2026-05-06 12:07 51.13358 -0.29518 1396 ft 139 kts 71°
2026-05-06 12:08 51.13565 -0.28031 1194 ft 136 kts 70°
2026-05-06 12:08 51.13766 -0.26585 1011 ft 133 kts 71°
2026-05-06 12:08 51.13960 -0.25145 816 ft 134 kts 68°
2026-05-06 12:08 51.14153 -0.23683 645 ft 136 kts 72°
2026-05-06 12:09 51.14367 -0.22202 433 ft 138 kts 72°
2026-05-06 12:09 51.14572 -0.20741 259 ft 136 kts 73°
2026-05-06 12:09 51.14778 -0.19320 206 ft 118 kts 73°
2026-05-06 12:09 51.14914 -0.18323 206 ft 67 kts 79°
2026-05-06 12:10 51.14990 -0.17782 210 ft 41 kts 78°
2026-05-06 12:10 51.15057 -0.17372 203 ft 30 kts 65°
2026-05-06 12:10 51.15148 -0.17221 202 ft 10 kts 345°
2026-05-06 12:10 51.15152 -0.17224 202 ft 0 kts 339°
2026-05-06 12:11 51.15177 -0.17244 205 ft 11 kts 332°
2026-05-06 12:11 51.15245 -0.17317 210 ft 12 kts 326°
2026-05-06 12:12 51.15303 -0.17381 211 ft 0 kts 325°